CAPE
2 1 1 1 1 1 0 0 0 0 0 0 0 0 0 0 0 0 0 0 0 0 0 0 0 0 0 0 0 0 0 0 0 0 0 0 0 0 0 0 0 0 0 0 0 0 7
2 1 1 2 1 0 0 0 0 0 0 0 0 0 0 0 0 0 0 0 0 0 0 0 0 0 0 0 0 0 0 0 0 0 0 0 0 0 0 0 0 0 0 0 0 0 0
2 3 2 1 1 1 0 0 0 0 0 0 0 0 0 0 0 0 0 0 0 0 0 0 0 0 0 0 0 0 0 0 0 0 0 0 0 0 0 0 0 0 0 0 0 0 0
1 1 2 2 2 1 0 0 0 0 0 0 0 0 0 0 0 0 0 0 0 0 0 0 0 0 0 0 0 0 0 0 0 0 0 0 0 0 0 0 0 3 0 12 0 0 0
1 2 1 2 1 1 0 0 0 0 0 0 0 0 0 0 0 0 0 0 0 0 0 0 0 0 0 0 0 0 0 0 0 0 0 0 0 0 0 0 0 0 83 0 0 0 0
4 2 2 2 1 1 1 0 0 0 0 0 0 0 0 0 0 0 0 0 0 0 0 0 0 0 0 0 0 0 0 0 0 0 0 0 0 0 0 0 0 24 0 0 0 0 0
2 2 5 2 1 2 1 0 0 0 0 0 0 0 0 0 0 0 0 0 0 0 0 0 0 0 0 0 0 0 0 0 0 0 0 0 0 0 0 0 0 0 0 0 0 0 0
1 1 2 2 1 2 0 0 0 0 0 0 0 0 0 0 0 0 0 0 0 0 0 0 0 0 0 0 0 0 0 0 0 0 0 0 0 0 0 0 0 0 0 0 0 0 0
2 0 1 1 1 1 0 0 0 0 0 0 0 0 0 0 0 0 0 0 0 0 0 0 0 0 0 0 0 0 0 0 0 0 0 0 0 0 0 0 0 0 0 0 0 0 0
1 1 0 1 1 1 1 0 0 0 0 0 0 0 0 0 0 0 0 0 0 0 0 0 0 0 0 0 0 0 0 0 0 0 0 0 0 0 0 0 0 0 0 0 0 0 0
1 2 3 1 1 1 1 0 0 0 0 0 0 0 0 0 0 0 0 0 0 0 0 0 0 0 0 0 0 0 0 0 0 0 0 0 0 0 0 0 0 0 0 0 0 0 0
3 1 1 1 1 1 0 0 0 0 0 0 0 0 0 0 0 0 0 0 0 0 0 0 0 0 0 0 0 0 0 0 0 0 0 0 0 0 0 0 0 0 0 0 0 0 0
3 2 2 1 0 1 0 0 0 0 0 0 0 0 0 0 0 0 0 0 0 0 0 0 0 0 0 0 0 0 0 0 0 0 0 0 0 0 0 0 0 0 0 0 0 0 0
1 2 2 1 0 1 0 0 0 0 0 0 0 0 0 0 0 0 0 0 0 0 0 0 0 0 0 0 0 0 0 0 0 0 0 0 0 0 0 0 0 0 0 0 0 0 0
1 2 2 1 1 0 0 0 0 0 0 0 0 0 0 0 0 0 0 0 0 0 0 0 0 0 0 0 0 0 0 0 0 0 0 0 0 0 0 0 0 0 0 0 0 0 0
2 2 2 2 1 0 0 0 0 0 0 0 0 0 0 0 0 0 0 0 0 0 0 0 0 0 0 0 0 0 0 0 0 0 0 0 0 0 0 0 0 0 0 0 0 0 0
1 2 2 2 1 0 0 0 0 0 0 0 0 0 0 0 0 0 0 0 0 0 0 0 0 0 0 0 0 0 0 0 0 0 0 0 0 0 0 0 0 0 0 0 6 3 42
1 2 1 2 1 0 0 0 0 0 0 0 0 0 0 0 0 0 0 0 0 0 0 0 0 0 0 0 0 0 0 0 0 0 0 0 0 0 0 0 0 1 15 23 9 29 2
0 1 0 1 1 1 0 0 0 0 0 0 0 0 0 0 0 0 0 0 0 0 0 0 0 0 0 0 0 0 0 0 0 0 0 0 0 0 0 0 0 1 0 38 190 134 56
0 0 0 0 0 1 0 0 0 0 0 0 0 0 0 0 0 0 0 0 0 0 0 0 0 0 0 0 0 0 0 0 0 0 0 0 0 0 0 1 17 69 11 3 51 56 170
0 0 0 0 0 0 0 0 0 0 0 0 0 0 0 0 0 0 0 0 0 0 0 0 0 0 0 0 0 0 0 0 0 0 0 0 0 0 0 2 2 96 40 0 50 108 142
0 0 0 0 1 1 0 0 0 0 0 0 0 0 0 0 0 0 0 0 0 0 0 0 0 0 0 0 0 0 0 0 0 0 0 0 0 0 0 0 0 0 40 23 57 161 154
0 0 0 0 1 2 1 0 0 0 0 0 0 0 0 0 0 0 0 0 0 0 0 0 0 0 0 0 0 0 0 0 86 102 36 13 0 33 0 3 0 0 19 35 98 113 188
0 0 0 0 0 1 0 0 0 0 0 0 0 0 0 0 0 0 0 0 0 0 0 0 0 0 0 0 0 0 0 0 0 103 340 171 130 90 3 120 0 234 222 117 310 352 482
0 0 0 0 0 0 0 0 0 0 0 0 0 0 0 0 0 0 0 0 0 0 0 0 0 0 0 0 0 20 12 3 0 13 165 233 185 101 157 80 344 483 692 561 505 393 661
0 0 0 0 0 0 0 0 0 0 0 0 0 0 0 0 0 0 0 0 0 0 0 0 0 0 0 0 0 0 4 13 26 35 21 194 355 234 171 172 170 430 628 716 430 313 652
0 0 0 0 0 0 0 0 0 0 0 0 0 0 0 0 0 0 0 0 0 0 0 0 0 2 1 0 0 1 10 17 14 10 62 132 137 94 158 216 162 371 682 297 51 355 666
0 0 0 0 0 0 0 0 0 0 0 0 0 0 0 0 0 0 0 0 0 0 0 0 7 34 60 29 18 42 6 13 24 32 70 59 46 100 168 131 143 718 773 309 1074 1575 1334
0 0 0 0 0 0 0 0 0 0 0 0 0 0 0 0 0 0 0 0 0 0 0 0 2 0 3 122 84 25 27 4 85 3 10 43 205 101 153 240 910 1234 1888 1848 2000 1890 1553
CIN
0 0 0 0 0 0 0 0 0 0 0 0 0 0 0 0 0 0 0 0 0 0 0 0 0 0 0 0 0 0 0 0 0 0 0 0 0 0 0 0 0 0 0 0 0 0 -61
0 0 0 0 0 0 0 0 0 0 0 0 0 0 0 0 0 0 0 0 0 0 0 0 0 0 0 0 0 0 0 0 0 0 0 0 0 0 0 0 0 0 0 0 0 0 0
0 0 0 0 0 0 0 0 0 0 0 0 0 0 0 0 0 0 0 0 0 0 0 0 0 0 0 0 0 0 0 0 0 0 0 0 0 0 0 0 0 0 0 0 0 0 0
0 0 0 0 0 0 0 0 0 0 0 0 0 0 0 0 0 0 0 0 0 0 0 0 0 0 0 0 0 0 0 0 0 0 0 0 0 0 0 0 0 -3 0 -4 0 0 0
-1 0 0 0 0 0 0 0 0 0 0 0 0 0 0 0 0 0 0 0 0 0 0 0 0 0 0 0 0 0 0 0 0 0 0 0 0 0 0 0 -47 -6 -7 0 0 0 0
0 0 0 0 0 0 0 0 0 0 0 0 0 0 0 0 0 0 0 0 0 0 0 0 0 0 0 0 0 0 0 0 0 0 0 0 0 0 0 0 -13 -40 -2 0 0 0 0
0 0 0 0 0 0 0 0 0 0 0 0 0 0 0 0 0 0 0 0 0 0 0 0 0 0 0 0 0 0 0 0 0 0 0 0 0 0 0 0 0 0 0 0 0 0 0
0 -1 0 0 0 0 0 0 0 0 0 0 0 0 0 0 0 0 0 0 0 0 0 0 0 0 0 0 0 0 0 0 0 0 0 0 0 0 0 0 0 0 0 0 0 0 0
0 0 0 0 0 0 0 0 0 0 0 0 0 0 0 0 0 0 0 0 0 0 0 0 0 0 0 0 0 0 0 0 0 0 0 0 0 0 0 0 0 0 0 0 0 0 0
0 0 0 0 0 0 0 0 0 0 0 0 0 0 0 0 0 0 0 0 0 0 0 0 0 0 0 0 0 0 0 0 0 0 0 0 0 0 0 0 0 0 0 0 0 0 0
0 0 0 0 0 0 0 0 0 0 0 0 0 0 0 0 0 0 0 0 0 0 0 0 0 0 0 0 0 0 0 0 0 0 0 0 0 0 0 0 0 0 0 0 0 0 0
0 0 0 0 0 0 0 0 0 0 0 0 0 0 0 0 0 0 0 0 0 0 0 0 0 0 0 0 0 0 0 0 0 0 0 0 0 0 0 0 0 0 0 0 0 0 0
0 0 0 0 0 0 0 0 0 0 0 0 0 0 0 0 0 0 0 0 0 0 0 0 0 0 0 0 0 0 0 0 0 0 0 0 0 0 0 0 0 0 0 0 0 0 0
0 0 0 0 0 0 0 0 0 0 0 0 0 0 0 0 0 0 0 0 0 0 0 0 0 0 0 0 0 0 0 0 0 0 0 0 0 0 0 0 0 0 0 0 0 0 0
0 0 0 0 0 0 0 0 0 0 0 0 0 0 0 0 0 0 0 0 0 0 0 0 0 0 0 0 0 0 0 0 0 0 0 0 0 0 0 0 0 0 0 0 0 0 0
0 0 0 0 0 0 0 0 0 0 0 0 0 0 0 0 0 0 0 0 0 0 0 0 0 0 0 0 0 0 0 0 0 0 0 0 0 0 0 0 0 0 0 0 0 0 0
0 0 0 0 0 0 0 0 0 0 0 0 0 0 0 0 0 0 0 0 0 0 0 0 0 0 0 0 0 0 0 0 0 0 0 0 0 0 0 0 0 0 0 0 -42 -91 -4
0 0 0 0 0 0 0 0 0 0 0 0 0 0 0 0 0 0 0 0 0 0 0 0 0 0 0 0 0 0 0 0 0 0 0 0 0 0 0 0 0 -6 -84 -74 -53 -43 -11
0 0 0 0 0 0 0 0 0 0 0 0 0 0 0 0 0 0 0 0 0 0 0 0 0 0 0 0 0 0 0 0 0 0 0 0 0 0 0 0 0 -36 -140 -65 -12 -16 -16
0 0 0 0 0 0 0 0 0 0 0 0 0 0 0 0 0 0 0 0 0 0 0 0 0 0 0 0 0 0 0 0 0 0 0 0 0 0 0 -37 -9 -111 -132 -77 -25 -17 -9
0 0 0 0 0 0 0 0 0 0 0 0 0 0 0 0 0 0 0 0 0 0 0 0 0 0 0 0 0 0 0 0 0 0 0 0 0 0 0 -5 -13 -35 -68 -81 -31 -4 -5
0 0 0 0 0 0 0 0 0 0 0 0 0 0 0 0 0 0 0 0 0 0 0 0 0 0 0 0 0 0 0 0 0 -1 0 0 0 0 0 0 0 0 -43 -60 -37 -16 -6
0 0 0 0 0 0 0 0 0 0 0 0 0 0 0 0 0 0 0 0 0 0 0 0 0 0 0 0 0 0 0 0 -140 -97 -104 -100 0 -86 0 -16 0 0 -54 -26 -18 -23 -6
0 0 0 0 0 0 0 0 0 0 0 0 0 0 0 0 0 0 0 0 0 0 0 0 0 0 0 0 0 0 0 0 0 -146 -97 -94 -74 -38 -8 -25 -7 -27 -29 -16 -15 -28 -38
0 0 0 0 0 0 0 0 0 0 0 0 0 0 0 0 0 0 0 0 0 0 0 0 0 0 0 0 0 -39 -44 -37 0 -97 -117 -99 -69 -27 -17 -21 -21 -53 -82 -50 -31 -24 -40
0 0 0 0 0 0 0 0 0 0 0 0 0 0 0 0 0 0 0 0 0 0 0 0 0 0 0 0 0 0 -4 -5 -15 -44 -107 -104 -108 -34 -32 -4 -9 -11 -105 -120 -90 -29 -77
0 0 0 0 0 0 0 0 0 0 0 0 0 0 0 0 0 0 0 0 0 0 0 0 0 -74 -52 0 0 -2 -5 -21 -12 -23 -29 -15 -30 -21 -29 -5 -34 -89 -129 -129 -55 -56 -116
0 0 0 0 0 0 0 0 0 0 0 0 0 0 0 0 0 0 0 0 0 0 0 0 -52 -96 -39 -24 -9 -3 -7 -14 -24 -92 -55 -22 -19 -12 -18 -14 -13 -169 -96 -48 -137 -114 -94
0 0 0 0 0 0 0 0 0 0 0 0 0 0 0 0 0 0 0 0 0 0 0 0 -8 0 -215 -40 -49 -71 -22 -53 -20 -26 -183 -51 -65 -11 -60 -49 -164 -170 -130 -166 -137 -114 -104
Wind_Speed
17 17 18 18 19 19 20 20 21 22 22 23 23 24 24 25 26 26 25 26 25 25 24 23 22 20 17 15 12 15 15 16 17 21 22 23 24 25 22 13 14 17 12 17 18 11 13
17 18 19 19 20 20 21 21 22 23 24 24 25 25 25 26 27 27 27 27 26 26 24 23 22 20 18 18 15 15 16 16 17 19 19 20 20 21 22 19 19 17 19 18 17 14 13
18 19 19 20 21 21 22 23 23 24 25 25 26 27 27 27 28 28 28 28 27 26 24 23 21 19 20 19 16 17 18 17 17 19 19 19 20 22 18 9 16 20 17 14 12 18 7
19 20 20 21 21 22 23 24 24 25 26 26 27 28 28 28 29 29 29 29 27 25 23 21 19 19 20 15 18 18 18 18 18 20 21 19 21 22 22 18 4 17 16 16 13 18 14
19 20 20 21 22 23 24 24 25 26 26 27 28 28 29 30 30 30 30 29 26 22 19 18 19 19 19 15 17 16 19 18 16 19 20 22 23 22 19 7 15 16 13 12 18 18 19
20 20 21 21 22 23 24 25 25 26 27 28 28 29 30 30 31 31 30 27 22 22 19 19 19 19 17 15 16 17 17 19 19 19 20 24 24 26 20 8 15 8 7 14 20 20 20
21 21 21 22 23 24 24 25 26 26 27 28 29 29 30 30 30 30 26 21 22 19 19 23 18 21 16 17 17 16 15 15 19 22 23 19 25 14 4 21 20 19 22 22 19 20 21
21 21 22 23 23 24 25 26 26 27 28 29 29 29 30 30 30 26 21 19 18 20 24 22 25 26 23 19 18 15 13 16 18 25 19 20 23 17 17 15 14 12 26 21 17 18 19
21 21 22 22 23 24 25 26 27 28 28 29 29 29 29 29 28 21 18 16 20 18 23 20 20 22 19 13 18 15 11 17 20 22 22 27 16 16 17 14 13 6 28 15 20 16 16
20 21 22 22 23 24 25 26 27 28 29 29 29 29 28 29 20 20 17 18 21 15 23 17 18 18 18 17 21 14 13 15 18 22 20 24 19 19 17 22 21 20 10 15 17 21 16
20 20 21 22 22 24 25 26 27 28 29 30 29 29 27 23 23 19 17 20 16 17 25 17 16 15 18 15 13 12 11 16 20 17 18 17 19 16 21 23 12 16 12 13 15 18 19
21 21 22 22 23 24 25 26 27 28 29 29 29 29 27 20 20 20 20 19 16 20 25 17 15 16 16 17 16 12 9 18 19 19 20 23 17 18 18 15 14 8 10 11 15 19 15
22 22 23 23 24 24 25 26 27 28 28 29 29 28 23 21 20 20 20 16 21 27 18 17 17 15 19 17 17 16 12 12 16 18 22 19 18 15 17 13 11 7 11 17 17 12 17
21 21 22 23 24 25 26 27 27 28 28 28 28 25 18 21 21 20 18 19 27 24 22 18 19 21 21 17 19 16 16 18 18 21 20 18 15 14 13 20 14 7 14 21 18 18 14
21 21 22 23 24 25 26 27 28 29 29 28 26 18 18 17 19 17 19 24 25 23 22 22 23 23 19 19 21 18 22 24 20 18 21 18 20 12 15 16 15 11 13 18 19 16 19
21 21 21 23 24 25 26 27 28 29 28 27 20 18 17 19 15 17 22 28 24 22 21 21 25 20 22 19 19 19 20 26 24 20 21 16 20 14 12 12 14 16 8 12 12 16 17
21 22 22 23 23 24 25 26 28 28 28 22 17 17 16 13 15 19 25 25 24 21 21 21 20 23 22 20 23 20 20 20 17 15 16 22 21 12 14 14 12 12 13 17 18 17 17
21 22 22 23 24 25 26 26 27 27 26 19 17 18 14 16 15 20 25 22 20 21 20 22 21 23 23 21 22 23 23 20 17 14 15 16 20 25 16 14 19 21 20 11 15 13 16
20 21 22 23 24 25 26 27 28 27 24 19 17 16 13 17 20 21 20 23 23 23 21 22 22 21 20 22 22 23 21 20 16 17 18 15 22 21 22 17 16 18 13 12 15 16 11
20 21 22 23 24 25 26 26 27 27 24 16 16 16 14 17 18 20 21 24 24 22 27 27 26 24 25 26 22 22 23 20 20 21 18 19 26 25 24 20 16 16 12 8 4 8 6
19 20 21 22 23 24 25 26 27 27 22 15 17 17 17 17 19 19 20 20 22 24 23 23 26 29 28 27 26 25 24 23 21 21 22 22 27 26 27 18 18 18 10 7 7 15 13
19 20 20 21 22 23 24 25 26 26 21 15 17 17 15 15 17 20 19 22 24 23 23 23 25 22 23 29 27 23 23 23 23 20 21 21 25 25 26 21 21 18 13 9 8 9 12
18 19 20 21 22 22 23 24 24 24 19 15 15 15 16 13 14 17 17 20 21 22 24 27 23 25 27 27 28 26 25 23 23 23 22 21 22 22 26 19 20 24 17 11 9 7 13
17 19 19 20 21 22 22 22 22 22 18 15 15 16 16 13 15 15 16 20 22 23 24 19 23 24 21 24 25 25 24 22 22 21 23 21 21 21 25 17 23 18 13 15 12 10 11
17 18 19 19 20 20 21 21 21 20 18 15 16 15 16 17 16 15 17 18 22 20 22 24 23 21 23 21 22 20 21 23 21 20 20 20 20 21 20 20 17 14 14 14 10 11 11
17 16 17 19 19 19 20 20 20 20 19 16 16 16 15 18 15 17 18 18 19 18 18 19 19 21 19 21 23 24 24 24 23 20 19 16 22 23 20 21 21 11 11 13 13 11 11
16 16 17 17 18 19 19 19 19 19 19 17 15 17 15 17 16 17 17 18 18 18 18 19 20 18 18 22 25 25 25 22 25 24 21 20 20 21 20 21 16 11 13 11 13 13 10
15 16 16 17 18 18 18 18 19 19 19 17 15 17 16 17 18 16 18 17 19 18 19 20 21 18 20 23 25 22 25 19 22 20 21 23 23 21 21 22 20 14 12 15 15 13 14
14 14 15 17 18 18 18 18 19 19 19 18 16 17 18 12 18 18 24 25 24 21 21 19 19 17 18 22 21 23 21 21 22 23 20 23 23 21 22 19 16 15 15 15 17 17 16
Wind_Direction
304 302 300 300 299 298 297 298 297 298 298 301 301 299 299 300 300 293 291 292 289 288 283 279 279 278 296 285 322 281 275 269 268 248 243 231 226 219 183 169 175 139 322 248 239 88 126
306 302 300 298 298 298 297 297 296 296 296 297 299 299 295 295 295 291 290 290 287 285 278 275 273 278 286 270 282 273 266 262 257 241 246 241 246 244 236 250 183 248 222 227 245 2 93
305 302 301 299 298 298 297 296 295 295 294 294 294 293 295 294 292 291 288 288 283 280 278 273 275 292 276 274 278 270 259 264 266 246 244 248 247 241 262 103 274 186 179 146 341 287 176
304 303 301 301 298 298 297 296 296 295 293 293 292 291 291 291 290 289 286 284 279 275 278 282 294 290 276 297 275 270 268 269 263 252 245 253 246 246 251 269 141 165 180 171 346 275 349
306 302 302 302 300 298 297 296 296 295 294 294 293 291 290 289 288 288 285 282 281 290 301 307 294 287 280 298 280 279 266 270 277 265 255 246 246 250 264 225 154 160 186 341 304 288 270
308 304 303 303 301 299 298 297 296 296 295 294 293 292 291 290 290 288 284 286 292 292 300 296 296 286 289 290 286 277 275 266 264 268 260 244 248 246 263 272 166 135 138 329 295 287 264
311 308 305 304 303 301 299 298 297 296 295 294 293 291 291 290 290 289 292 296 290 293 290 273 287 277 300 291 286 280 279 280 270 258 253 266 250 268 200 269 278 275 277 286 307 304 272
312 310 307 306 304 303 301 300 299 298 295 293 292 292 291 289 287 286 291 293 299 291 282 282 273 271 276 285 282 281 281 274 269 254 266 267 258 274 274 284 293 301 267 292 313 315 263
312 308 307 307 307 305 304 303 302 298 296 294 293 293 291 289 284 289 294 299 298 299 282 287 283 276 280 287 278 280 278 271 268 262 263 254 281 277 272 286 291 179 236 312 291 326 326
311 309 306 304 305 305 303 302 302 300 298 294 293 293 291 288 286 288 287 297 295 303 279 286 283 279 273 278 273 280 275 275 273 266 269 264 273 274 277 270 274 284 310 299 302 299 324
308 308 304 305 306 306 305 303 301 300 299 296 293 291 289 287 280 279 288 292 300 295 272 286 280 290 273 264 295 276 274 274 270 275 271 278 271 274 273 270 289 294 319 309 307 310 322
302 305 306 306 307 305 304 302 301 299 298 295 293 289 286 285 280 278 282 288 290 276 269 281 285 276 272 261 274 292 270 270 274 273 271 272 282 276 281 292 285 316 329 327 316 309 323
309 307 307 307 306 304 303 302 301 298 294 292 290 286 283 281 276 280 277 276 270 262 282 276 278 280 267 266 264 269 261 258 269 268 268 274 276 280 279 291 291 294 306 304 311 322 320
304 304 304 309 307 304 302 301 300 296 291 288 287 285 286 276 277 278 268 263 261 269 268 281 276 273 267 267 262 264 263 259 263 268 277 270 273 267 279 270 289 271 295 292 308 312 329
294 293 301 304 307 307 306 305 303 300 295 289 281 294 285 283 276 270 256 253 264 268 271 270 272 268 271 269 268 258 259 259 265 266 267 273 272 278 281 281 280 293 290 304 305 318 318
305 304 302 304 304 304 304 304 304 302 297 292 294 287 287 282 276 261 255 254 266 271 275 272 264 272 268 268 263 263 260 263 262 266 263 287 276 281 278 285 288 289 305 313 310 304 313
315 312 310 308 307 306 304 304 304 303 299 298 292 285 294 290 271 257 254 260 267 274 272 270 272 267 270 271 263 263 268 269 261 268 258 270 274 288 280 269 277 282 286 295 308 307 318
315 317 315 315 315 315 313 309 308 307 301 302 290 284 292 277 265 262 258 264 273 269 270 270 273 268 266 271 269 263 262 269 271 262 256 267 274 270 278 287 281 279 282 291 294 309 304
315 317 319 318 318 318 317 315 315 314 312 300 291 291 293 272 267 263 270 265 267 266 268 269 269 271 273 270 272 266 267 270 274 262 266 258 267 271 272 283 287 282 284 287 296 302 311
313 315 315 316 317 319 319 318 317 315 312 312 295 286 288 277 278 272 268 265 265 269 265 265 266 268 267 267 271 271 266 268 267 265 272 268 261 264 269 279 283 282 285 266 197 306 324
315 312 314 313 316 318 319 319 319 316 310 316 298 290 284 277 272 274 274 275 269 269 268 270 266 261 262 266 265 266 267 267 269 267 266 265 262 263 267 286 286 290 286 259 262 287 297
315 315 311 313 317 318 321 321 320 319 311 319 297 291 291 288 284 275 276 273 270 271 270 268 263 268 265 259 260 270 270 267 265 268 263 265 265 264 266 275 276 280 285 285 286 303 302
313 314 313 313 316 319 322 326 325 324 312 322 310 302 292 297 292 282 283 278 276 277 272 264 270 269 267 265 263 269 272 273 271 265 263 264 260 262 265 272 271 268 270 275 280 289 304
306 311 311 314 317 319 323 328 330 330 326 322 313 295 292 297 290 293 291 285 281 275 268 275 274 268 276 275 268 267 267 269 270 270 265 265 258 261 264 268 265 276 275 274 278 290 302
298 305 306 310 313 318 322 327 329 328 317 332 321 303 294 291 292 294 297 295 287 283 273 271 274 275 275 272 260 263 260 262 263 270 265 264 255 259 261 260 281 285 272 270 268 286 304
292 304 306 306 308 312 317 322 324 323 320 315 330 310 306 293 296 298 297 302 297 292 280 274 280 278 269 262 254 254 252 256 257 260 265 264 259 256 258 259 267 274 276 278 283 283 304
287 294 296 304 304 305 309 315 321 322 318 305 329 319 316 300 309 299 298 301 304 295 284 276 278 275 269 257 254 254 252 258 254 251 253 254 258 257 259 260 278 285 277 276 275 294 308
285 290 296 301 299 301 303 310 317 321 317 306 326 320 322 310 308 309 297 298 297 298 283 279 267 275 270 256 255 256 257 258 256 259 256 256 256 259 261 261 273 283 279 276 294 308 314
281 290 296 292 292 294 298 302 310 317 314 302 316 320 310 347 311 304 279 274 276 285 286 284 272 272 282 263 262 259 261 260 259 256 264 258 261 266 265 271 289 287 290 296 302 303 311